Regional Weather Roundup
Issued by NWS Austin/San Antonio, TX

Current Version | Previous Version | Text Only | Print | Product List | Glossary On
Versions: 1 2 3 4 5 6 7 8 9 10 11 12 13 14 15 16 17 18 19 20 21 22 23 24 25 26 27 28 29 30 31 32 33 34 35 36 37 38 39 40 41 42 43 44 45 46 47 48 49 50
000
ASUS44 KEWX 292301
RWREWX
SOUTH TEXAS REGIONAL WEATHER ROUNDUP
NATIONAL WEATHER SERVICE AUSTIN/SAN ANTONIO TX
600 PM CDT THU SEP 29 2022

NOTE: "FAIR" INDICATED FEW OR NO CLOUDS BELOW 12,000 FEET WITH NO
SIGNIFICANT WEATHER AND/OR OBSTRUCTIONS TO VISIBILITY.

* - THESE STATIONS ARE NOT NWS OR FAA STATIONS...AND ARE NOT SUBJECT
    TO NWS AND FAA QUALITY CONTROL.

TXZ171-172-183>190-300000-
TEXAS HILL COUNTRY AND EDWARDS PLATEAU

CITY           SKY/WX    TMP DP  RH WIND       PRES   REMARKS
JUNCTION       SUNNY     89  46  22 VRB3      30.10F
*LLANO         SUNNY     91  45  19 VRB3      30.07F
BURNET         SUNNY     89  46  22 SW5       30.09F
*HORSESHOE BAY SUNNY     91  44  19 NW3       30.07F
*LAGO VISTA      N/A     92  47  20 CALM      30.08F
*KERRVILLE     SUNNY     88  45  22 S7        30.10F
*FREDERICKSBRG SUNNY     87  46  23 S5        30.10F
*ROCKSPRINGS   SUNNY     84  45  24 SE3G13    30.19F
*BOERNE        SUNNY     88  43  20 E6        30.09F
*CASTROVILLE   SUNNY     93  39  15 E3        30.08F
HONDO          SUNNY     90  48  23 SW7       30.07F
*UVALDE        SUNNY     88  47  24 SW7       30.11S
DEL RIO        SUNNY     88  48  25 SE10      30.08F
*LAUGHLIN AFB  SUNNY     86  46  24 SE8       30.07F
*SPOFFORD      SUNNY     88  49  26 NE8       30.08F
CARRIZO SPRGS  SUNNY     90  50  25 SE8       30.07F
*FAITH RANCH   SUNNY     90  48  24 VRB5      30.09F
$$

TXZ173-191>194-202-209-217>225-228-300000-
CENTRAL AND SOUTH CENTRAL TEXAS

CITY           SKY/WX    TMP DP  RH WIND       PRES   REMARKS
GEORGETOWN     SUNNY     90  48  23 E7        30.07F
*TAYLOR        SUNNY     90  47  22 E3        30.06F
AUSTIN/BERGSTM SUNNY     90  49  24 CALM      30.04F
AUSTIN/MABRY   SUNNY     90  47  22 SE8       30.06F
*PFLUGERVILLE  SUNNY     90  43  19 CALM      30.04F
SAN MARCOS     SUNNY     97  46  17 E6        30.07S HX  93
NEW BRAUNFELS  SUNNY     92  47  21 VRB3      30.04F
*RANDOLPH AFB  SUNNY     91  42  17 S5        30.03F
*SEGUIN        SUNNY     90  45  20 SE3       30.03F
SAN ANTONIO    MOSUNNY   90  46  21 CALM      30.06F
STINSON FIELD  SUNNY     92  47  21 CALM      30.03F
*KELLY FIELD   SUNNY     91  48  22 SE5       30.03F
*PLEASANTON    SUNNY     91  49  23 SE5       30.07F
*KENEDY        SUNNY     90  49  24 CALM      30.06F
*LA GRANGE     NOT AVBL
*GIDDINGS      SUNNY     88  46  22 N6        30.06F
*GONZALES      SUNNY     91  50  24 NW5       30.04F
$$

TXZ163>164-176>182-195>201-210>213-226-227-235-300000-
SOUTHEAST TEXAS

CITY           SKY/WX    TMP DP  RH WIND       PRES   REMARKS
COLLEGE STN    SUNNY     87  49  26 NE9       30.06F
*BRYAN         SUNNY     85  49  28 CALM      30.09F
*CALDWELL      SUNNY     86  49  27 N5        30.07F
*CROCKETT      SUNNY     82  41  23 N10       30.08F
*BRENHAM       SUNNY     87  48  25 NE3         N/A
HUNTSVILLE     SUNNY     85  46  25 E5        30.07F
CONROE         SUNNY     82  49  31 NE7       30.07F
HOUSTON BUSH   SUNNY     84  49  29 NE10      30.05F
HOUSTON HOBBY  SUNNY     85  45  24 N10       30.05F
*HOUSTON SW AP NOT AVBL
PEARLAND       SUNNY     84  47  27 NE9       30.06F
HOUSTON HOOKS  SUNNY     85  49  28 E6        30.05F
ELLINGTON FLD  NOT AVBL
SUGAR LAND     SUNNY     84  47  27 N6        30.05F
*HOUSTON EXEC  SUNNY     82  50  32 NE5       30.07F
*CLEVELAND MUN NOT AVBL
*WHARTON       SUNNY     85  47  26 NE5       30.06S
*COLUMBUS      FAIR      87  49  26 CALM      30.06F
*EAGLE LAKE    SUNNY     87  47  25 MISG      30.05F
$$

TXZ214>216-236>238-300000-
THE UPPER TEXAS COAST

CITY           SKY/WX    TMP DP  RH WIND       PRES   REMARKS
*ORANGE        SUNNY     83  35  18 N7        30.06F
PORT ARTHUR    SUNNY     81  43  26 N10G21    30.03F
GALVESTON      SUNNY     80  48  32 N9        30.05F
ANGLETON       SUNNY     84  47  27 N6        30.05F
*BAY CITY      SUNNY     84  50  30 N3        30.06F
PALACIOS       SUNNY     81  60  48 S9        30.05F
$$

TXZ229>234-239>247-300000-
TEXAS COASTAL BEND AND RIO GRANDE PLAINS

CITY           SKY/WX    TMP DP  RH WIND       PRES   REMARKS
VICTORIA       SUNNY     89  53  29 E3        30.05F
*BEEVILLE      SUNNY     88  45  22 NE7       30.05F
ROCKPORT       SUNNY     82  63  52 SE7       30.06F
*PORT ARANSAS  SUNNY    N/A N/A N/A E8        30.08F
*PORT LAVACA   NOT AVBL
*INGLESIDE     NOT AVBL
CORPUS CHRISTI SUNNY     88  60  38 E8        30.06F
CORPUS NAS     MOSUNNY   84  63  49 SE9       30.06F
*ROBSTOWN      SUNNY     88  52  29 MISG      30.06F
ALICE          SUNNY     89  56  32 N5        30.06S
KINGSVILLE NAS MOSUNNY   90  53  28 N5        30.05F
COTULLA        SUNNY     90  50  25 SE7       30.07F
LAREDO         SUNNY     90  54  29 SE9       30.07F
$$

TXZ248>255-300000-
DEEP SOUTH TEXAS

CITY           SKY/WX    TMP DP  RH WIND       PRES   REMARKS
BROWNSVILLE    SUNNY     85  62  46 NE9       30.06S
PORT ISABEL    SUNNY     84  63  49 NE13      30.06F
HARLINGEN      SUNNY     86  59  39 NE10      30.06S
*HEBBRONVILLE  MOSUNNY   87  53  31 N3        30.09F
MCALLEN        SUNNY     89  54  30 NE10      30.06F
*WESLACO       SUNNY     87  54  31 NE7       30.06
FALFURRIAS     SUNNY     88  54  31 N3        30.05F
EDINBURG       MOSUNNY   88  57  34 NE3       30.06F
*ZAPATA        SUNNY     90  57  32 CALM      30.07F
$$

TXZ213>215-236>238-242>244-246-247-251-254-255-300000-
CMAN STATIONS

STATION/POSITION TIME  TEMP    WIND        PRES    WAVE
                       AIR SEA DIR/SP/G            HT/PER
                 (UTC) (F)     (DEG/KT/KT) (MB)    (FT/S)
SEA RIM ST PARK  2200   80     360/ 11/ 15 1017.4
NORTH JETTY/GLS  2230   78 80   10/ 11/ 14 1016.2
EAGLE POINT      2230   77 78   70/  3/  5 1017.1
MORGANS POINT    2230   80 81  140/  6/  8 1017.0
MISSION/ARANSAS  2200   80     150/  8     1019.0
PORT O`CONNOR    2230   79 88  100/  5/  6 1017.7
PORT ARANSAS     2200   80      70/  8/  9   N/A
BAFFIN BAY       2230   80 85   60/  8/ 10 1018.6
PORT ISABEL      2230   81 81   10/  9/ 14 1017.7
$$



USA.gov is the U.S. government's official web portal to all federal, state and local government web resources and services.